Location: Newark
(54.2500°N, 9.1833°E)
Time: 05:03:38
(UTC+00:00)

Transit 4A - Pass Details

Date: 23 December 2019
Orbit: 871 x 973 km, 66.8° (Epoch: 20 January)

Event Time Altitude Azimuth Distance (km) Brightness Sun altitude
Rises 20:31:17 0° 316° (NW) 3,511 11.6 -45.7°
Reaches altitude 10° 20:33:53 10° 321° (NW) 2,557 10.7 -46.1°
Enters shadow 20:34:15 12° 322° (NW) 2,425 10.5 -46.1°
